Wetterdaten: Mittwoch, 31.10.2012
Datum Zeit Temperatur Luftfeuchte Regen Wind Richtung Richtung Taupunkt Windchill Windben
31.10.2012 00:03 -3,3 C 95 % 0,0 l/m 0,0 km/h (0 Bft) W-NW 292 9,0 C -4,1 C 0,0 km/h (0 Bft)
31.10.2012 00:08 -3,6 C 95 % 0,0 l/m 0,0 km/h (0 Bft) SW 225 9,0 C -4,0 C 0,0 km/h (0 Bft)
31.10.2012 00:13 -3,7 C 95 % 0,0 l/m 0,0 km/h (0 Bft) SW 225 9,0 C -4,1 C 0,0 km/h (0 Bft)
31.10.2012 00:18 -3,4 C 95 % 0,0 l/m 0,0 km/h (0 Bft) N-NO 22 9,0 C -4,1 C 0,0 km/h (0 Bft)
31.10.2012 00:23 -3,5 C 95 % 0,0 l/m 0,0 km/h (0 Bft) N-NO 22 9,0 C -4,1 C 0,0 km/h (0 Bft)
31.10.2012 00:28 -3,7 C 95 % 0,0 l/m 0,0 km/h (0 Bft) N-NO 22 9,0 C -4,1 C 0,0 km/h (0 Bft)
31.10.2012 00:33 -3,9 C 95 % 0,0 l/m 0,0 km/h (0 Bft) N-NO 22 9,0 C -4,2 C 0,0 km/h (0 Bft)
31.10.2012 00:38 -4,3 C 95 % 0,0 l/m 0,0 km/h (0 Bft) N-NO 22 9,0 C -4,4 C 0,0 km/h (0 Bft)
31.10.2012 00:43 -4,2 C 95 % 0,0 l/m 0,0 km/h (0 Bft) N-NO 22 9,0 C -4,5 C 0,0 km/h (0 Bft)
31.10.2012 00:48 -3,7 C 95 % 0,0 l/m 0,0 km/h (0 Bft) N-NO 22 9,0 C -4,5 C 0,0 km/h (0 Bft)
31.10.2012 00:53 -3,8 C 95 % 0,0 l/m 0,0 km/h (0 Bft) N-NO 22 9,0 C -4,5 C 0,0 km/h (0 Bft)
31.10.2012 00:58 -3,8 C 95 % 0,0 l/m 0,0 km/h (0 Bft) NO 45 9,0 C -4,4 C 0,0 km/h (0 Bft)
31.10.2012 01:03 -4,0 C 95 % 0,0 l/m 0,0 km/h (0 Bft) S-SW 202 9,0 C -4,3 C 0,0 km/h (0 Bft)
31.10.2012 01:08 -3,9 C 95 % 0,0 l/m 0,0 km/h (0 Bft) NO 45 9,0 C -4,4 C 0,0 km/h (0 Bft)
31.10.2012 01:13 -3,7 C 95 % 0,0 l/m 0,0 km/h (0 Bft) O-NO 67 9,0 C -4,3 C 0,0 km/h (0 Bft)
31.10.2012 01:18 -3,3 C 95 % 0,0 l/m 0,0 km/h (0 Bft) N-NO 22 9,0 C -4,2 C 0,0 km/h (0 Bft)
31.10.2012 01:23 -3,4 C 95 % 0,0 l/m 0,0 km/h (0 Bft) N-NO 22 9,0 C -4,1 C 0,0 km/h (0 Bft)
31.10.2012 01:28 -3,7 C 95 % 0,0 l/m 0,0 km/h (0 Bft) S-SO 157 9,0 C -4,2 C 0,0 km/h (0 Bft)
31.10.2012 01:33 -3,7 C 95 % 0,0 l/m 0,0 km/h (0 Bft) S 180 9,0 C -4,2 C 0,0 km/h (0 Bft)
31.10.2012 01:38 -3,9 C 95 % 0,0 l/m 0,0 km/h (0 Bft) S-SO 157 9,0 C -4,3 C 0,0 km/h (0 Bft)
31.10.2012 01:43 -4,0 C 95 % 0,0 l/m 0,0 km/h (0 Bft) S 180 9,0 C -4,3 C 0,0 km/h (0 Bft)
31.10.2012 01:48 -4,0 C 95 % 0,0 l/m 0,0 km/h (0 Bft) NO 45 9,0 C -4,3 C 0,0 km/h (0 Bft)
31.10.2012 01:53 -3,9 C 95 % 0,0 l/m 0,0 km/h (0 Bft) W-NW 292 9,0 C -4,3 C 0,0 km/h (0 Bft)
31.10.2012 01:58 -3,5 C 95 % 0,0 l/m 0,0 km/h (0 Bft) N-NO 22 9,0 C -4,2 C 0,0 km/h (0 Bft)
31.10.2012 02:03 -3,5 C 95 % 0,0 l/m 0,0 km/h (0 Bft) N 360 9,0 C -4,2 C 0,0 km/h (0 Bft)
31.10.2012 02:08 -3,9 C 95 % 0,0 l/m 0,0 km/h (0 Bft) SW 225 9,0 C -4,2 C 0,0 km/h (0 Bft)
31.10.2012 02:13 -3,8 C 95 % 0,0 l/m 0,0 km/h (0 Bft) W-SW 247 9,0 C -4,2 C 0,0 km/h (0 Bft)
31.10.2012 02:18 -4,1 C 95 % 0,0 l/m 0,0 km/h (0 Bft) W-NW 292 9,0 C -4,4 C 0,0 km/h (0 Bft)
31.10.2012 02:23 -3,6 C 95 % 0,0 l/m 0,0 km/h (0 Bft) S 180 9,0 C -4,4 C 0,0 km/h (0 Bft)
31.10.2012 02:28 -3,3 C 95 % 0,0 l/m 0,0 km/h (0 Bft) NW 315 9,0 C -4,4 C 0,0 km/h (0 Bft)
31.10.2012 02:33 -3,8 C 95 % 0,0 l/m 0,0 km/h (0 Bft) NW 315 9,0 C -4,3 C 0,0 km/h (0 Bft)
31.10.2012 02:38 -3,9 C 95 % 0,0 l/m 0,0 km/h (0 Bft) NW 315 9,0 C -4,4 C 0,0 km/h (0 Bft)
31.10.2012 02:43 -4,1 C 95 % 0,0 l/m 0,0 km/h (0 Bft) N-NW 337 9,0 C -4,5 C 0,0 km/h (0 Bft)
31.10.2012 02:48 -4,2 C 95 % 0,0 l/m 0,0 km/h (0 Bft) W 270 9,0 C -4,7 C 0,0 km/h (0 Bft)
31.10.2012 02:53 -4,3 C 95 % 0,0 l/m 0,0 km/h (0 Bft) S 180 9,0 C -4,7 C 0,0 km/h (0 Bft)
31.10.2012 02:58 -4,5 C 95 % 0,0 l/m 0,0 km/h (0 Bft) W-NW 292 9,0 C -4,8 C 0,0 km/h (0 Bft)
31.10.2012 03:03 -4,6 C 95 % 0,0 l/m 0,0 km/h (0 Bft) W-NW 292 9,0 C -4,8 C 0,0 km/h (0 Bft)
31.10.2012 03:08 -4,6 C 95 % 0,0 l/m 0,0 km/h (0 Bft) W-NW 292 9,0 C -4,9 C 0,0 km/h (0 Bft)
31.10.2012 03:13 -4,2 C 95 % 0,0 l/m 0,0 km/h (0 Bft) N 360 9,0 C -5,0 C 0,0 km/h (0 Bft)
31.10.2012 03:18 -4,3 C 95 % 0,0 l/m 0,0 km/h (0 Bft) N-NW 337 9,0 C -4,8 C 0,0 km/h (0 Bft)
31.10.2012 03:23 -4,3 C 95 % 0,0 l/m 0,0 km/h (0 Bft) N-NW 337 9,0 C -4,8 C 0,0 km/h (0 Bft)
31.10.2012 03:28 -4,5 C 95 % 0,0 l/m 0,0 km/h (0 Bft) N-NW 337 9,0 C -4,9 C 0,0 km/h (0 Bft)
31.10.2012 03:33 -4,7 C 95 % 0,0 l/m 0,0 km/h (0 Bft) N-NW 337 9,0 C -5,0 C 0,0 km/h (0 Bft)
31.10.2012 03:38 -4,4 C 95 % 0,0 l/m 0,0 km/h (0 Bft) N-NW 337 9,0 C -5,0 C 0,0 km/h (0 Bft)
31.10.2012 03:43 -4,3 C 95 % 0,0 l/m 0,0 km/h (0 Bft) N-NW 337 9,0 C -5,0 C 0,0 km/h (0 Bft)
31.10.2012 03:48 -4,4 C 95 % 0,0 l/m 0,0 km/h (0 Bft) W-NW 292 9,0 C -4,9 C 0,0 km/h (0 Bft)
31.10.2012 03:53 -4,5 C 95 % 0,0 l/m 0,0 km/h (0 Bft) W 270 9,0 C -4,9 C 0,0 km/h (0 Bft)
31.10.2012 03:58 -3,9 C 95 % 0,0 l/m 0,0 km/h (0 Bft) N-NO 22 9,0 C -4,8 C 0,0 km/h (0 Bft)
31.10.2012 04:03 -3,9 C 95 % 0,0 l/m 0,0 km/h (0 Bft) SO 135 9,0 C -4,7 C 0,0 km/h (0 Bft)
31.10.2012 04:08 -4,2 C 95 % 0,0 l/m 0,0 km/h (0 Bft) S 180 9,0 C -4,8 C 0,0 km/h (0 Bft)
31.10.2012 04:13 -4,5 C 95 % 0,0 l/m 0,0 km/h (0 Bft) S 180 9,0 C -4,8 C 0,0 km/h (0 Bft)
31.10.2012 04:18 -4,2 C 95 % 0,0 l/m 0,0 km/h (0 Bft) N 360 9,0 C -4,9 C 0,0 km/h (0 Bft)
31.10.2012 04:23 -3,9 C 95 % 0,0 l/m 0,0 km/h (0 Bft) NO 45 9,0 C -4,8 C 0,0 km/h (0 Bft)
31.10.2012 04:28 -4,0 C 95 % 0,0 l/m 0,0 km/h (0 Bft) N 360 9,0 C -4,6 C 0,0 km/h (0 Bft)
31.10.2012 04:33 -4,5 C 95 % 0,0 l/m 0,0 km/h (0 Bft) N 360 9,0 C -4,8 C 0,0 km/h (0 Bft)
31.10.2012 04:38 -4,5 C 95 % 0,0 l/m 0,0 km/h (0 Bft) N-NW 337 9,0 C -4,8 C 0,0 km/h (0 Bft)
31.10.2012 04:43 -4,7 C 95 % 0,0 l/m 0,0 km/h (0 Bft) N 360 9,0 C -4,9 C 0,0 km/h (0 Bft)
31.10.2012 04:48 -4,6 C 95 % 0,0 l/m 0,0 km/h (0 Bft) NO 45 9,0 C -5,0 C 0,0 km/h (0 Bft)
31.10.2012 04:53 -4,5 C 95 % 0,0 l/m 0,0 km/h (0 Bft) O 90 9,0 C -5,0 C 0,0 km/h (0 Bft)
31.10.2012 04:58 -4,6 C 95 % 0,0 l/m 0,0 km/h (0 Bft) O 90 9,0 C -5,0 C 0,0 km/h (0 Bft)
31.10.2012 05:03 -4,6 C 95 % 0,0 l/m 0,0 km/h (0 Bft) O 90 9,0 C -5,0 C 0,0 km/h (0 Bft)
31.10.2012 05:08 -4,8 C 95 % 0,0 l/m 0,0 km/h (0 Bft) N 360 9,0 C -5,0 C 0,0 km/h (0 Bft)
31.10.2012 05:13 -4,7 C 95 % 0,0 l/m 0,0 km/h (0 Bft) N-NW 337 9,0 C -5,1 C 0,0 km/h (0 Bft)
31.10.2012 05:18 -4,5 C 95 % 0,0 l/m 0,0 km/h (0 Bft) N 360 9,0 C -5,1 C 0,0 km/h (0 Bft)
31.10.2012 05:23 -4,4 C 95 % 0,0 l/m 0,0 km/h (0 Bft) N 360 9,0 C -5,0 C 0,0 km/h (0 Bft)
31.10.2012 05:28 -4,8 C 95 % 0,0 l/m 0,0 km/h (0 Bft) N 360 9,0 C -5,2 C 0,0 km/h (0 Bft)
31.10.2012 05:33 -4,6 C 95 % 0,0 l/m 0,0 km/h (0 Bft) N 360 9,0 C -5,2 C 0,0 km/h (0 Bft)
31.10.2012 05:38 -4,7 C 95 % 0,0 l/m 0,0 km/h (0 Bft) N 360 9,0 C -5,0 C 0,0 km/h (0 Bft)
31.10.2012 05:43 -4,8 C 95 % 0,0 l/m 0,0 km/h (0 Bft) N 360 9,0 C -5,1 C 0,0 km/h (0 Bft)
31.10.2012 05:48 -4,9 C 95 % 0,0 l/m 0,0 km/h (0 Bft) N 360 9,0 C -5,2 C 0,0 km/h (0 Bft)
31.10.2012 05:53 -4,9 C 95 % 0,0 l/m 0,0 km/h (0 Bft) N 360 9,0 C -5,2 C 0,0 km/h (0 Bft)
31.10.2012 05:58 -5,0 C 95 % 0,0 l/m 0,0 km/h (0 Bft) N 360 9,0 C -5,4 C 0,0 km/h (0 Bft)
31.10.2012 06:03 -5,1 C 95 % 0,0 l/m 0,0 km/h (0 Bft) N 360 9,0 C -5,5 C 0,0 km/h (0 Bft)
31.10.2012 06:08 -4,4 C 95 % 0,0 l/m 0,0 km/h (0 Bft) O-SO 112 9,0 C -5,4 C 0,0 km/h (0 Bft)
31.10.2012 06:13 -4,8 C 95 % 0,0 l/m 0,0 km/h (0 Bft) N-NO 22 9,0 C -5,2 C 0,0 km/h (0 Bft)
31.10.2012 06:18 -4,8 C 95 % 0,0 l/m 0,0 km/h (0 Bft) O-SO 112 9,0 C -5,2 C 0,0 km/h (0 Bft)
31.10.2012 06:23 -4,6 C 95 % 0,0 l/m 0,0 km/h (0 Bft) S 180 9,0 C -5,1 C 0,0 km/h (0 Bft)
31.10.2012 06:28 -4,9 C 95 % 0,0 l/m 0,2 km/h (0 Bft) S 180 9,0 C -5,1 C 0,0 km/h (0 Bft)
31.10.2012 06:33 -5,2 C 95 % 0,0 l/m 0,2 km/h (0 Bft) S 180 9,0 C -5,4 C 0,0 km/h (0 Bft)
31.10.2012 06:38 -5,0 C 95 % 0,0 l/m 0,0 km/h (0 Bft) S-SO 157 9,0 C -5,6 C 0,0 km/h (0 Bft)
31.10.2012 06:43 -4,8 C 95 % 0,0 l/m 0,0 km/h (0 Bft) S-SO 157 9,0 C -5,5 C 0,0 km/h (0 Bft)
31.10.2012 06:48 -4,9 C 95 % 0,0 l/m 0,0 km/h (0 Bft) S 180 9,0 C -5,5 C 0,0 km/h (0 Bft)
31.10.2012 06:53 -5,0 C 95 % 0,0 l/m 0,0 km/h (0 Bft) S 180 9,0 C -5,5 C 0,0 km/h (0 Bft)
31.10.2012 06:58 -4,8 C 95 % 0,0 l/m 0,0 km/h (0 Bft) N 360 9,0 C -5,5 C 0,0 km/h (0 Bft)
31.10.2012 07:03 -4,9 C 95 % 0,0 l/m 0,0 km/h (0 Bft) N 360 9,0 C -5,4 C 0,0 km/h (0 Bft)
31.10.2012 07:08 -4,8 C 95 % 0,0 l/m 0,0 km/h (0 Bft) N-NO 22 9,0 C -5,5 C 0,0 km/h (0 Bft)
31.10.2012 07:13 -4,8 C 95 % 0,0 l/m 0,0 km/h (0 Bft) N 360 9,0 C -5,4 C 0,0 km/h (0 Bft)
31.10.2012 07:18 -4,9 C 95 % 0,0 l/m 0,0 km/h (0 Bft) N 360 9,0 C -5,4 C 0,0 km/h (0 Bft)
31.10.2012 07:23 -4,9 C 95 % 0,0 l/m 0,0 km/h (0 Bft) N 360 9,0 C -5,4 C 0,0 km/h (0 Bft)
31.10.2012 07:28 -4,9 C 95 % 0,0 l/m 0,0 km/h (0 Bft) NO 45 9,0 C -5,4 C 0,0 km/h (0 Bft)
31.10.2012 07:33 -4,9 C 95 % 0,0 l/m 0,0 km/h (0 Bft) S-SW 202 9,0 C -5,2 C 0,0 km/h (0 Bft)
31.10.2012 07:38 -5,2 C 95 % 0,0 l/m 0,0 km/h (0 Bft) S 180 9,0 C -5,4 C 0,0 km/h (0 Bft)
31.10.2012 07:43 -5,1 C 95 % 0,0 l/m 0,0 km/h (0 Bft) N 360 9,0 C -5,2 C 0,0 km/h (0 Bft)
31.10.2012 07:48 -4,4 C 95 % 0,0 l/m 0,0 km/h (0 Bft) O-SO 112 9,0 C -5,0 C 0,0 km/h (0 Bft)
31.10.2012 07:53 -4,3 C 95 % 0,0 l/m 0,0 km/h (0 Bft) W-NW 292 9,0 C -4,8 C 0,0 km/h (0 Bft)
31.10.2012 07:58 -4,4 C 95 % 0,0 l/m 0,0 km/h (0 Bft) SW 225 9,0 C -4,6 C 0,0 km/h (0 Bft)
31.10.2012 08:03 -4,1 C 95 % 0,0 l/m 0,0 km/h (0 Bft) N 360 9,0 C -4,6 C 0,0 km/h (0 Bft)
31.10.2012 08:08 -4,1 C 95 % 0,0 l/m 0,0 km/h (0 Bft) W-NW 292 9,0 C -4,3 C 0,0 km/h (0 Bft)
31.10.2012 08:13 -4,1 C 95 % 0,0 l/m 0,0 km/h (0 Bft) S 180 9,0 C -4,3 C 0,0 km/h (0 Bft)
31.10.2012 08:18 -3,9 C 95 % 0,0 l/m 0,0 km/h (0 Bft) N 360 9,0 C -4,2 C 0,0 km/h (0 Bft)
31.10.2012 08:23 -3,4 C 95 % 0,0 l/m 0,2 km/h (0 Bft) N 360 9,0 C -4,1 C 0,0 km/h (0 Bft)
31.10.2012 08:28 -3,5 C 95 % 0,0 l/m 0,2 km/h (0 Bft) O-SO 112 9,0 C -3,8 C 0,0 km/h (0 Bft)
31.10.2012 08:33 -3,2 C 95 % 0,0 l/m 0,2 km/h (0 Bft) N-NO 22 9,0 C -3,6 C 0,0 km/h (0 Bft)
31.10.2012 08:38 -2,6 C 95 % 0,0 l/m 0,2 km/h (0 Bft) N 360 9,0 C -3,2 C 0,0 km/h (0 Bft)
31.10.2012 08:43 -3,0 C 95 % 0,0 l/m 0,0 km/h (0 Bft) NW 315 9,0 C -3,1 C 0,0 km/h (0 Bft)
31.10.2012 08:48 -2,5 C 95 % 0,0 l/m 0,2 km/h (0 Bft) O-SO 112 9,0 C -3,0 C 0,0 km/h (0 Bft)
31.10.2012 08:53 -2,4 C 95 % 0,0 l/m 0,2 km/h (0 Bft) N 360 9,0 C -2,8 C 0,0 km/h (0 Bft)
31.10.2012 08:58 -2,6 C 95 % 0,0 l/m 0,0 km/h (0 Bft) N-NW 337 9,0 C -2,6 C 0,0 km/h (0 Bft)
31.10.2012 09:03 -2,1 C 95 % 0,0 l/m 0,0 km/h (0 Bft) N-NO 22 9,0 C -2,5 C 0,0 km/h (0 Bft)
31.10.2012 09:08 -1,9 C 95 % 0,0 l/m 0,2 km/h (0 Bft) N-NO 22 9,0 C -1,2 C 0,0 km/h (0 Bft)
31.10.2012 09:13 -1,7 C 95 % 0,0 l/m 0,2 km/h (0 Bft) N-NO 22 9,0 C -0,1 C 0,0 km/h (0 Bft)
31.10.2012 09:18 -1,8 C 95 % 0,0 l/m 0,0 km/h (0 Bft) N-NW 337 9,0 C 1,5 C 0,0 km/h (0 Bft)
31.10.2012 09:23 -1,8 C 95 % 0,0 l/m 0,0 km/h (0 Bft) N-NW 337 9,0 C 2,9 C 0,0 km/h (0 Bft)
31.10.2012 09:28 -1,4 C 95 % 0,0 l/m 0,0 km/h (0 Bft) N-NO 22 9,0 C 5,2 C 0,0 km/h (0 Bft)
31.10.2012 09:33 -1,2 C 95 % 0,0 l/m 0,0 km/h (0 Bft) N 360 9,0 C 6,1 C 0,0 km/h (0 Bft)
31.10.2012 09:38 -1,1 C 95 % 0,0 l/m 0,0 km/h (0 Bft) N-NO 22 9,0 C 7,2 C 0,0 km/h (0 Bft)
31.10.2012 09:43 -0,7 C 95 % 0,0 l/m 0,2 km/h (0 Bft) N 360 9,0 C 7,1 C 0,0 km/h (0 Bft)
31.10.2012 09:48 -0,4 C 95 % 0,0 l/m 0,8 km/h (0 Bft) N 360 9,0 C 7,1 C 1,9 km/h (1 Bft)
31.10.2012 09:53 -0,3 C 95 % 0,0 l/m 1,1 km/h (1 Bft) N-NW 337 9,0 C 7,2 C 1,9 km/h (1 Bft)
31.10.2012 09:58 -0,1 C 95 % 0,0 l/m 0,6 km/h (0 Bft) N-NO 22 9,0 C 7,7 C 1,9 km/h (1 Bft)
31.10.2012 10:03 0,0 C 95 % 0,0 l/m 0,5 km/h (0 Bft) N 360 9,0 C 8,1 C 1,6 km/h (1 Bft)
31.10.2012 10:08 0,0 C 95 % 0,0 l/m 0,6 km/h (0 Bft) N-NO 22 9,0 C 8,5 C 0,0 km/h (0 Bft)
31.10.2012 10:13 0,1 C 95 % 0,0 l/m 0,6 km/h (0 Bft) N-NW 337 9,0 C 8,8 C 0,0 km/h (0 Bft)
31.10.2012 10:18 0,2 C 95 % 0,0 l/m 0,6 km/h (0 Bft) N-NW 337 9,0 C 9,2 C 2,4 km/h (1 Bft)
31.10.2012 10:23 0,2 C 95 % 0,0 l/m 0,6 km/h (0 Bft) N-NO 22 9,0 C 9,7 C 0,0 km/h (0 Bft)
31.10.2012 10:28 0,2 C 95 % 0,0 l/m 1,0 km/h (0 Bft) N 360 9,0 C 10,0 C 2,9 km/h (1 Bft)
31.10.2012 10:33 0,3 C 95 % 0,0 l/m 1,3 km/h (1 Bft) N-NW 337 9,0 C 10,0 C 2,9 km/h (1 Bft)
31.10.2012 10:38 0,5 C 95 % 0,0 l/m 1,3 km/h (1 Bft) N-NO 22 9,0 C 10,4 C 0,0 km/h (0 Bft)
31.10.2012 10:43 0,7 C 95 % 0,0 l/m 0,6 km/h (0 Bft) N 360 9,0 C 11,3 C 0,0 km/h (0 Bft)
31.10.2012 10:48 0,9 C 95 % 0,0 l/m 0,0 km/h (0 Bft) SO 135 9,0 C 12,4 C 0,0 km/h (0 Bft)
31.10.2012 10:53 1,1 C 95 % 0,0 l/m 0,0 km/h (0 Bft) N-NO 22 9,0 C 13,2 C 0,0 km/h (0 Bft)
31.10.2012 10:58 1,4 C 95 % 0,0 l/m 0,0 km/h (0 Bft) NO 45 9,0 C 12,8 C 0,0 km/h (0 Bft)
31.10.2012 11:03 2,1 C 95 % 0,0 l/m 0,2 km/h (0 Bft) N-NO 22 9,0 C 12,5 C 2,3 km/h (1 Bft)
31.10.2012 11:08 2,6 C 95 % 0,0 l/m 0,2 km/h (0 Bft) NO 45 9,0 C 12,5 C 0,0 km/h (0 Bft)
31.10.2012 11:13 2,5 C 95 % 0,0 l/m 0,2 km/h (0 Bft) SO 135 9,0 C 13,6 C 0,0 km/h (0 Bft)
31.10.2012 11:18 2,5 C 95 % 0,0 l/m 0,0 km/h (0 Bft) NO 45 9,0 C 14,6 C 0,0 km/h (0 Bft)
31.10.2012 11:23 3,1 C 95 % 0,0 l/m 0,0 km/h (0 Bft) N-NO 22 9,0 C 15,1 C 0,0 km/h (0 Bft)
31.10.2012 11:28 3,2 C 95 % 0,0 l/m 1,0 km/h (0 Bft) O 90 9,0 C 14,6 C 2,9 km/h (1 Bft)
31.10.2012 11:33 3,0 C 95 % 0,7 l/m 1,4 km/h (1 Bft) NO 45 9,0 C 14,1 C 0,0 km/h (0 Bft)
31.10.2012 11:38 3,1 C 95 % 0,7 l/m 0,8 km/h (0 Bft) O 90 9,0 C 13,9 C 0,0 km/h (0 Bft)
31.10.2012 11:43 3,0 C 95 % 0,7 l/m 0,2 km/h (0 Bft) N-NO 22 9,0 C 14,3 C 0,0 km/h (0 Bft)
31.10.2012 11:48 2,9 C 95 % 0,7 l/m 0,0 km/h (0 Bft) N-NO 22 9,0 C 13,7 C 0,0 km/h (0 Bft)
31.10.2012 11:53 3,1 C 95 % 0,0 l/m 0,2 km/h (0 Bft) N-NO 22 9,0 C 13,6 C 0,0 km/h (0 Bft)
31.10.2012 11:58 3,0 C 95 % 0,7 l/m 0,2 km/h (0 Bft) N-NO 22 9,0 C 14,1 C 0,0 km/h (0 Bft)
31.10.2012 12:03 3,0 C 95 % 0,7 l/m 0,0 km/h (0 Bft) NO 45 9,0 C 13,9 C 0,0 km/h (0 Bft)
31.10.2012 12:08 3,1 C 95 % 0,7 l/m 0,6 km/h (0 Bft) O-SO 112 9,0 C 13,9 C 1,9 km/h (1 Bft)
31.10.2012 12:13 3,0 C 95 % 0,7 l/m 0,6 km/h (0 Bft) N 360 9,0 C 13,2 C 0,0 km/h (0 Bft)
31.10.2012 12:18 3,0 C 95 % 0,7 l/m 0,3 km/h (0 Bft) W-NW 292 9,0 C 11,7 C 0,0 km/h (0 Bft)
31.10.2012 12:23 3,0 C 95 % 0,0 l/m 0,0 km/h (0 Bft) N-NO 22 9,0 C 11,1 C 0,0 km/h (0 Bft)
31.10.2012 12:28 3,3 C 95 % 0,0 l/m 0,0 km/h (0 Bft) W-NW 292 9,0 C 9,9 C 0,0 km/h (0 Bft)
31.10.2012 12:33 3,4 C 95 % 0,0 l/m 0,0 km/h (0 Bft) S 180 9,0 C 9,0 C 0,0 km/h (0 Bft)
31.10.2012 12:38 3,2 C 95 % 0,0 l/m 0,0 km/h (0 Bft) S-SW 202 9,0 C 8,3 C 0,0 km/h (0 Bft)
31.10.2012 12:43 3,4 C 95 % 0,0 l/m 0,0 km/h (0 Bft) N-NO 22 9,0 C 8,1 C 0,0 km/h (0 Bft)
31.10.2012 12:48 3,4 C 95 % 0,0 l/m 0,0 km/h (0 Bft) O 90 9,0 C 8,6 C 0,0 km/h (0 Bft)
31.10.2012 12:53 3,5 C 95 % 0,0 l/m 0,2 km/h (0 Bft) SO 135 9,0 C 9,4 C 0,0 km/h (0 Bft)
31.10.2012 12:58 3,6 C 95 % 0,0 l/m 0,3 km/h (0 Bft) NO 45 9,0 C 10,7 C 1,9 km/h (1 Bft)
31.10.2012 13:03 3,4 C 95 % 0,0 l/m 0,3 km/h (0 Bft) N 360 9,0 C 11,3 C 2,3 km/h (1 Bft)
31.10.2012 13:08 3,4 C 95 % 0,0 l/m 0,8 km/h (0 Bft) N 360 9,0 C 12,3 C 1,8 km/h (1 Bft)
31.10.2012 13:13 3,5 C 95 % 0,0 l/m 1,0 km/h (0 Bft) NO 45 9,0 C 11,2 C 0,0 km/h (0 Bft)
31.10.2012 13:18 3,4 C 95 % 0,0 l/m 0,6 km/h (0 Bft) N 360 9,0 C 10,6 C 2,7 km/h (1 Bft)
31.10.2012 13:23 3,6 C 95 % 0,0 l/m 0,8 km/h (0 Bft) NO 45 9,0 C 9,7 C 0,0 km/h (0 Bft)
31.10.2012 13:28 3,5 C 95 % 0,0 l/m 2,1 km/h (1 Bft) N-NO 22 9,0 C 7,9 C 0,0 km/h (0 Bft)
31.10.2012 13:33 3,6 C 95 % 0,0 l/m 1,6 km/h (1 Bft) O-NO 67 9,0 C 7,1 C 0,0 km/h (0 Bft)
31.10.2012 13:38 3,8 C 95 % 0,0 l/m 0,5 km/h (0 Bft) N-NO 22 9,0 C 6,7 C 0,0 km/h (0 Bft)
31.10.2012 13:43 3,5 C 95 % 0,0 l/m 0,5 km/h (0 Bft) S 180 9,0 C 6,4 C 0,0 km/h (0 Bft)
31.10.2012 13:48 3,6 C 95 % 0,0 l/m 0,3 km/h (0 Bft) O-SO 112 9,0 C 6,1 C 2,3 km/h (1 Bft)
31.10.2012 13:53 3,5 C 95 % 0,0 l/m 1,1 km/h (1 Bft) O-SO 112 9,0 C 6,1 C 0,0 km/h (0 Bft)
31.10.2012 13:58 3,8 C 95 % 0,0 l/m 0,8 km/h (0 Bft) N-NO 22 9,0 C 5,8 C 0,0 km/h (0 Bft)
31.10.2012 14:03 4,0 C 95 % 0,0 l/m 0,6 km/h (0 Bft) N-NO 22 9,0 C 5,8 C 3,1 km/h (1 Bft)
31.10.2012 14:08 4,2 C 95 % 0,0 l/m 1,0 km/h (0 Bft) N-NO 22 9,0 C 5,9 C 0,0 km/h (0 Bft)
31.10.2012 14:13 4,0 C 95 % 0,0 l/m 0,6 km/h (0 Bft) N-NO 22 9,0 C 6,1 C 0,0 km/h (0 Bft)
31.10.2012 14:18 4,2 C 95 % 0,0 l/m 0,2 km/h (0 Bft) NO 45 9,0 C 6,0 C 0,0 km/h (0 Bft)
31.10.2012 14:23 4,1 C 95 % 0,0 l/m 0,2 km/h (0 Bft) W-SW 247 9,0 C 6,6 C 0,0 km/h (0 Bft)
31.10.2012 14:28 4,5 C 95 % 0,0 l/m 0,5 km/h (0 Bft) NO 45 9,0 C 7,6 C 1,8 km/h (1 Bft)
31.10.2012 14:33 4,6 C 95 % 0,0 l/m 0,8 km/h (0 Bft) N 360 9,0 C 7,4 C 1,8 km/h (1 Bft)
31.10.2012 14:38 4,6 C 95 % 0,0 l/m 1,1 km/h (1 Bft) N 360 9,0 C 7,0 C 0,0 km/h (0 Bft)
31.10.2012 14:43 4,9 C 95 % 0,0 l/m 0,8 km/h (0 Bft) N-NO 22 9,0 C 7,1 C 1,6 km/h (1 Bft)
31.10.2012 14:48 4,6 C 95 % 0,0 l/m 0,3 km/h (0 Bft) N 360 9,0 C 6,9 C 2,6 km/h (1 Bft)
31.10.2012 14:53 4,5 C 95 % 0,0 l/m 0,8 km/h (0 Bft) N-NW 337 9,0 C 6,5 C 0,0 km/h (0 Bft)
31.10.2012 14:58 4,5 C 95 % 0,0 l/m 0,8 km/h (0 Bft) N 360 9,0 C 6,0 C 2,3 km/h (1 Bft)
31.10.2012 15:03 4,4 C 95 % 0,0 l/m 0,6 km/h (0 Bft) N 360 9,0 C 5,6 C 0,0 km/h (0 Bft)
31.10.2012 15:08 3,8 C 95 % 0,0 l/m 0,6 km/h (0 Bft) N 360 9,0 C 5,2 C 0,0 km/h (0 Bft)
31.10.2012 15:13 3,8 C 95 % 0,0 l/m 0,2 km/h (0 Bft) N 360 9,0 C 4,6 C 0,0 km/h (0 Bft)
31.10.2012 15:18 3,7 C 95 % 0,0 l/m 0,0 km/h (0 Bft) O 90 9,0 C 4,2 C 0,0 km/h (0 Bft)
31.10.2012 15:23 3,7 C 95 % 0,0 l/m 0,0 km/h (0 Bft) N-NO 22 9,0 C 4,0 C 0,0 km/h (0 Bft)
31.10.2012 15:28 3,9 C 95 % 0,0 l/m 0,0 km/h (0 Bft) W 270 9,0 C 4,0 C 0,0 km/h (0 Bft)
31.10.2012 15:33 4,1 C 95 % 0,0 l/m 0,0 km/h (0 Bft) NO 45 9,0 C 4,1 C 0,0 km/h (0 Bft)
31.10.2012 15:38 4,4 C 95 % 0,0 l/m 0,2 km/h (0 Bft) NO 45 9,0 C 4,3 C 0,0 km/h (0 Bft)
31.10.2012 15:43 4,4 C 95 % 0,0 l/m 0,2 km/h (0 Bft) N 360 9,0 C 4,5 C 3,2 km/h (1 Bft)
31.10.2012 15:48 4,3 C 95 % 0,0 l/m 2,3 km/h (1 Bft) N-NW 337 9,0 C 4,8 C 4,5 km/h (1 Bft)
31.10.2012 15:53 4,3 C 95 % 0,0 l/m 2,9 km/h (1 Bft) N 360 9,0 C 5,1 C 2,9 km/h (1 Bft)
31.10.2012 15:58 4,3 C 95 % 0,0 l/m 1,8 km/h (1 Bft) N-NO 22 9,0 C 5,0 C 0,0 km/h (0 Bft)
31.10.2012 16:03 4,1 C 95 % 0,0 l/m 1,4 km/h (1 Bft) N 360 9,0 C 4,7 C 3,2 km/h (1 Bft)
31.10.2012 16:08 4,1 C 95 % 0,0 l/m 1,8 km/h (1 Bft) NO 45 9,0 C 4,3 C 3,9 km/h (1 Bft)
31.10.2012 16:13 3,7 C 95 % 0,0 l/m 2,9 km/h (1 Bft) W-NW 292 9,0 C 4,1 C 5,1 km/h (1 Bft)
31.10.2012 16:18 3,7 C 95 % 0,0 l/m 3,1 km/h (1 Bft) N-NO 22 9,0 C 3,9 C 2,1 km/h (1 Bft)
31.10.2012 16:23 3,5 C 95 % 0,0 l/m 1,9 km/h (1 Bft) N 360 9,0 C 3,7 C 2,1 km/h (1 Bft)
31.10.2012 16:28 3,4 C 95 % 0,0 l/m 0,8 km/h (0 Bft) O 90 9,0 C 3,2 C 2,3 km/h (1 Bft)
31.10.2012 16:33 3,3 C 95 % 0,0 l/m 1,1 km/h (1 Bft) N-NO 22 9,0 C 3,0 C 1,8 km/h (1 Bft)
31.10.2012 16:38 3,2 C 95 % 0,0 l/m 1,1 km/h (1 Bft) N 360 9,0 C 2,8 C 3,2 km/h (1 Bft)
31.10.2012 16:43 3,0 C 95 % 0,0 l/m 1,1 km/h (1 Bft) N-NO 22 9,0 C 2,6 C 6,4 km/h (2 Bft)
31.10.2012 16:48 2,9 C 95 % 0,0 l/m 1,9 km/h (1 Bft) N 360 9,0 C 2,6 C 4,5 km/h (1 Bft)
31.10.2012 16:53 2,8 C 95 % 0,0 l/m 2,4 km/h (1 Bft) W-NW 292 9,0 C 2,6 C 2,7 km/h (1 Bft)
31.10.2012 16:58 2,6 C 95 % 0,0 l/m 2,3 km/h (1 Bft) N-NW 337 9,0 C 2,5 C 2,1 km/h (1 Bft)
31.10.2012 17:03 2,5 C 95 % 0,0 l/m 1,3 km/h (1 Bft) N-NO 22 9,0 C 2,1 C 2,1 km/h (1 Bft)
31.10.2012 17:08 2,5 C 95 % 0,0 l/m 1,4 km/h (1 Bft) N 360 9,0 C 2,1 C 4,2 km/h (1 Bft)
31.10.2012 17:13 2,4 C 95 % 0,0 l/m 1,9 km/h (1 Bft) N 360 9,0 C 2,1 C 2,9 km/h (1 Bft)
31.10.2012 17:18 1,8 C 95 % 0,0 l/m 1,6 km/h (1 Bft) SO 135 9,0 C 1,6 C 2,4 km/h (1 Bft)
31.10.2012 17:23 1,3 C 95 % 0,0 l/m 1,3 km/h (1 Bft) N-NO 22 9,0 C 1,1 C 1,9 km/h (1 Bft)
31.10.2012 17:28 1,9 C 95 % 0,0 l/m 1,1 km/h (1 Bft) NO 45 9,0 C 0,8 C 0,0 km/h (0 Bft)
31.10.2012 17:33 2,3 C 95 % 0,0 l/m 0,6 km/h (0 Bft) N-NO 22 9,0 C 1,0 C 2,1 km/h (1 Bft)
31.10.2012 17:38 1,9 C 95 % 0,0 l/m 0,3 km/h (0 Bft) NO 45 9,0 C 1,1 C 0,0 km/h (0 Bft)
31.10.2012 17:43 1,3 C 95 % 0,0 l/m 0,3 km/h (0 Bft) S-SO 157 9,0 C 0,8 C 0,0 km/h (0 Bft)
31.10.2012 17:48 0,7 C 95 % 0,0 l/m 0,3 km/h (0 Bft) NO 45 9,0 C 0,2 C 0,0 km/h (0 Bft)
31.10.2012 17:53 1,1 C 95 % 0,0 l/m 0,6 km/h (0 Bft) N-NO 22 9,0 C 0,1 C 3,4 km/h (1 Bft)
31.10.2012 17:58 1,7 C 95 % 0,0 l/m 2,7 km/h (1 Bft) N 360 9,0 C 0,2 C 5,8 km/h (2 Bft)
31.10.2012 18:03 1,9 C 95 % 0,0 l/m 2,9 km/h (1 Bft) W-SW 247 9,0 C 0,4 C 0,0 km/h (0 Bft)
31.10.2012 18:08 0,6 C 95 % 0,0 l/m 1,6 km/h (1 Bft) SO 135 9,0 C 0,5 C 0,0 km/h (0 Bft)
31.10.2012 18:13 0,4 C 95 % 0,0 l/m 0,8 km/h (0 Bft) O-SO 112 9,0 C 0,3 C 2,6 km/h (1 Bft)
31.10.2012 18:18 0,5 C 95 % 0,0 l/m 0,3 km/h (0 Bft) N-NW 337 9,0 C 0,1 C 0,0 km/h (0 Bft)
31.10.2012 18:23 0,3 C 95 % 0,0 l/m 0,5 km/h (0 Bft) SW 225 9,0 C 0,0 C 0,0 km/h (0 Bft)
31.10.2012 18:28 0,0 C 95 % 0,0 l/m 0,2 km/h (0 Bft) W 270 9,0 C -0,3 C 0,0 km/h (0 Bft)
31.10.2012 18:33 0,0 C 95 % 0,0 l/m 0,3 km/h (0 Bft) W-NW 292 9,0 C -0,4 C 3,2 km/h (1 Bft)
31.10.2012 18:38 0,3 C 95 % 0,0 l/m 1,1 km/h (1 Bft) NO 45 9,0 C -0,3 C 3,1 km/h (1 Bft)
31.10.2012 18:43 0,6 C 95 % 0,0 l/m 1,4 km/h (1 Bft) NO 45 9,0 C -0,1 C 2,1 km/h (1 Bft)
31.10.2012 18:48 0,7 C 95 % 0,0 l/m 1,0 km/h (0 Bft) N 360 9,0 C 0,1 C 3,2 km/h (1 Bft)
31.10.2012 18:53 0,6 C 95 % 0,0 l/m 1,3 km/h (1 Bft) N-NW 337 9,0 C 0,3 C 0,0 km/h (0 Bft)
31.10.2012 18:58 0,9 C 95 % 0,0 l/m 1,6 km/h (1 Bft) NO 45 9,0 C 0,4 C 0,0 km/h (0 Bft)
31.10.2012 19:03 1,2 C 95 % 0,0 l/m 1,1 km/h (1 Bft) N-NW 337 9,0 C 0,5 C 1,9 km/h (1 Bft)
31.10.2012 19:08 0,7 C 95 % 0,0 l/m 1,3 km/h (1 Bft) O-SO 112 9,0 C 0,5 C 2,6 km/h (1 Bft)
31.10.2012 19:13 0,4 C 95 % 0,0 l/m 2,1 km/h (1 Bft) O-SO 112 9,0 C 0,3 C 3,7 km/h (1 Bft)
31.10.2012 19:18 0,4 C 95 % 0,0 l/m 2,1 km/h (1 Bft) N-NW 337 9,0 C 0,3 C 3,7 km/h (1 Bft)
31.10.2012 19:23 0,6 C 95 % 0,0 l/m 2,4 km/h (1 Bft) W 270 9,0 C 0,3 C 4,3 km/h (1 Bft)
31.10.2012 19:28 0,6 C 95 % 0,0 l/m 2,1 km/h (1 Bft) SO 135 9,0 C 0,3 C 0,0 km/h (0 Bft)
31.10.2012 19:33 0,7 C 95 % 0,0 l/m 1,9 km/h (1 Bft) NO 45 9,0 C 0,3 C 4,7 km/h (1 Bft)
31.10.2012 19:38 1,2 C 95 % 0,0 l/m 1,3 km/h (1 Bft) O-NO 67 9,0 C 0,6 C 0,0 km/h (0 Bft)
31.10.2012 19:43 1,0 C 95 % 0,0 l/m 1,6 km/h (1 Bft) O-SO 112 9,0 C 0,8 C 5,8 km/h (2 Bft)
31.10.2012 19:48 1,2 C 95 % 0,0 l/m 1,9 km/h (1 Bft) SO 135 9,0 C 0,9 C 0,0 km/h (0 Bft)
31.10.2012 19:53 1,2 C 95 % 0,0 l/m 2,1 km/h (1 Bft) SO 135 9,0 C 1,0 C 1,9 km/h (1 Bft)
31.10.2012 19:58 1,4 C 95 % 0,0 l/m 1,0 km/h (0 Bft) N-NO 22 9,0 C 1,1 C 0,0 km/h (0 Bft)
31.10.2012 20:03 1,6 C 95 % 0,0 l/m 0,5 km/h (0 Bft) S 180 9,0 C 1,1 C 0,0 km/h (0 Bft)
31.10.2012 20:08 1,3 C 95 % 0,0 l/m 0,3 km/h (0 Bft) S-SW 202 9,0 C 1,1 C 0,0 km/h (0 Bft)
31.10.2012 20:13 1,5 C 95 % 0,0 l/m 0,2 km/h (0 Bft) N-NW 337 9,0 C 1,1 C 0,0 km/h (0 Bft)
31.10.2012 20:18 1,9 C 95 % 0,0 l/m 0,3 km/h (0 Bft) NO 45 9,0 C 1,4 C 0,0 km/h (0 Bft)
31.10.2012 20:23 1,7 C 95 % 0,0 l/m 0,5 km/h (0 Bft) N-NW 337 9,0 C 1,5 C 0,0 km/h (0 Bft)
31.10.2012 20:28 1,6 C 95 % 0,0 l/m 0,2 km/h (0 Bft) SO 135 9,0 C 1,5 C 0,0 km/h (0 Bft)
31.10.2012 20:33 1,4 C 95 % 0,0 l/m 0,5 km/h (0 Bft) N-NW 337 9,0 C 1,5 C 1,6 km/h (1 Bft)
31.10.2012 20:38 1,3 C 95 % 0,0 l/m 0,5 km/h (0 Bft) O-SO 112 9,0 C 1,3 C 0,0 km/h (0 Bft)
31.10.2012 20:43 1,2 C 95 % 0,0 l/m 0,0 km/h (0 Bft) S-SO 157 9,0 C 1,2 C 0,0 km/h (0 Bft)
31.10.2012 20:48 1,3 C 95 % 0,0 l/m 0,3 km/h (0 Bft) N 360 9,0 C 1,2 C 2,4 km/h (1 Bft)
31.10.2012 20:53 1,3 C 95 % 0,0 l/m 0,8 km/h (0 Bft) W 270 9,0 C 1,2 C 2,4 km/h (1 Bft)
31.10.2012 20:58 1,3 C 95 % 0,0 l/m 0,8 km/h (0 Bft) W-SW 247 9,0 C 1,2 C 1,8 km/h (1 Bft)
31.10.2012 21:03 1,2 C 95 % 0,0 l/m 0,8 km/h (0 Bft) O-SO 112 9,0 C 1,1 C 0,0 km/h (0 Bft)
31.10.2012 21:08 1,2 C 95 % 0,0 l/m 0,8 km/h (0 Bft) O-SO 112 9,0 C 1,1 C 0,0 km/h (0 Bft)
31.10.2012 21:13 1,2 C 95 % 0,0 l/m 0,5 km/h (0 Bft) NW 315 9,0 C 1,1 C 0,0 km/h (0 Bft)
31.10.2012 21:18 1,3 C 95 % 0,0 l/m 0,2 km/h (0 Bft) O 90 9,0 C 1,1 C 1,8 km/h (1 Bft)
31.10.2012 21:23 1,5 C 95 % 0,0 l/m 0,3 km/h (0 Bft) O-SO 112 9,0 C 1,2 C 2,4 km/h (1 Bft)
31.10.2012 21:28 1,3 C 95 % 0,0 l/m 0,3 km/h (0 Bft) W-NW 292 9,0 C 1,1 C 1,9 km/h (1 Bft)
31.10.2012 21:33 1,2 C 95 % 0,0 l/m 0,3 km/h (0 Bft) SO 135 9,0 C 1,1 C 1,6 km/h (1 Bft)
31.10.2012 21:38 1,6 C 95 % 0,0 l/m 0,5 km/h (0 Bft) NO 45 9,0 C 1,1 C 0,0 km/h (0 Bft)
31.10.2012 21:43 1,7 C 95 % 0,0 l/m 0,5 km/h (0 Bft) N-NW 337 9,0 C 1,4 C 2,4 km/h (1 Bft)
31.10.2012 21:48 1,5 C 95 % 0,0 l/m 0,3 km/h (0 Bft) NO 45 9,0 C 1,4 C 0,0 km/h (0 Bft)
31.10.2012 21:53 1,5 C 95 % 0,0 l/m 0,3 km/h (0 Bft) S 180 9,0 C 1,4 C 3,2 km/h (1 Bft)
31.10.2012 21:58 1,3 C 95 % 0,0 l/m 1,3 km/h (1 Bft) NW 315 9,0 C 1,3 C 6,1 km/h (2 Bft)
31.10.2012 22:03 1,3 C 95 % 0,0 l/m 1,6 km/h (1 Bft) NO 45 9,0 C 1,2 C 0,0 km/h (0 Bft)
31.10.2012 22:08 1,5 C 95 % 0,0 l/m 1,3 km/h (1 Bft) W-NW 292 9,0 C 1,2 C 3,1 km/h (1 Bft)
31.10.2012 22:13 1,3 C 95 % 0,0 l/m 1,6 km/h (1 Bft) N 360 9,0 C 1,3 C 2,1 km/h (1 Bft)
31.10.2012 22:18 1,3 C 95 % 0,0 l/m 1,6 km/h (1 Bft) O-SO 112 9,0 C 1,3 C 2,3 km/h (1 Bft)
31.10.2012 22:23 1,3 C 95 % 0,0 l/m 0,6 km/h (0 Bft) NO 45 9,0 C 1,3 C 0,0 km/h (0 Bft)
31.10.2012 22:28 1,2 C 95 % 0,0 l/m 0,3 km/h (0 Bft) S 180 9,0 C 1,2 C 0,0 km/h (0 Bft)
31.10.2012 22:33 1,2 C 95 % 0,0 l/m 0,2 km/h (0 Bft) O-NO 67 9,0 C 1,2 C 0,0 km/h (0 Bft)
31.10.2012 22:38 1,2 C 95 % 0,0 l/m 0,2 km/h (0 Bft) N-NO 22 9,0 C 1,1 C 0,0 km/h (0 Bft)
31.10.2012 22:43 1,2 C 95 % 0,0 l/m 0,2 km/h (0 Bft) N 360 9,0 C 1,1 C 0,0 km/h (0 Bft)
31.10.2012 22:48 1,1 C 95 % 0,0 l/m 0,2 km/h (0 Bft) N-NO 22 9,0 C 1,0 C 0,0 km/h (0 Bft)
31.10.2012 22:53 1,0 C 95 % 0,0 l/m 0,3 km/h (0 Bft) SO 135 9,0 C 1,0 C 3,2 km/h (1 Bft)
31.10.2012 22:58 1,1 C 95 % 0,0 l/m 1,0 km/h (0 Bft) NO 45 9,0 C 0,9 C 1,9 km/h (1 Bft)
31.10.2012 23:03 1,4 C 95 % 0,0 l/m 1,6 km/h (1 Bft) W-SW 247 9,0 C 1,0 C 2,9 km/h (1 Bft)
31.10.2012 23:08 1,4 C 95 % 0,0 l/m 1,0 km/h (0 Bft) N-NO 22 9,0 C 1,0 C 1,6 km/h (1 Bft)
31.10.2012 23:13 1,8 C 95 % 0,0 l/m 0,5 km/h (0 Bft) NO 45 9,0 C 1,1 C 2,1 km/h (1 Bft)
31.10.2012 23:18 1,9 C 95 % 0,0 l/m 0,2 km/h (0 Bft) N 360 9,0 C 1,3 C 0,0 km/h (0 Bft)
31.10.2012 23:23 1,7 C 95 % 0,0 l/m 0,5 km/h (0 Bft) W-NW 292 9,0 C 1,5 C 3,4 km/h (1 Bft)
31.10.2012 23:28 1,2 C 95 % 0,0 l/m 0,6 km/h (0 Bft) O 90 9,0 C 1,2 C 0,0 km/h (0 Bft)
31.10.2012 23:33 1,1 C 95 % 0,0 l/m 0,8 km/h (0 Bft) O-NO 67 9,0 C 1,1 C 0,0 km/h (0 Bft)
31.10.2012 23:38 1,4 C 95 % 0,0 l/m 0,5 km/h (0 Bft) SO 135 9,0 C 1,1 C 2,9 km/h (1 Bft)
31.10.2012 23:43 1,4 C 95 % 0,0 l/m 0,5 km/h (0 Bft) SO 135 9,0 C 1,2 C 2,4 km/h (1 Bft)
31.10.2012 23:48 1,6 C 95 % 0,0 l/m 0,5 km/h (0 Bft) O-SO 112 9,0 C 1,3 C 0,0 km/h (0 Bft)
31.10.2012 23:53 1,4 C 95 % 0,0 l/m 0,3 km/h (0 Bft) N-NO 22 9,0 C 1,3 C 0,0 km/h (0 Bft)
31.10.2012 23:58 1,5 C 95 % 0,0 l/m 0,5 km/h (0 Bft) N 360 9,0 C 1,3 C 1,8 km/h (1 Bft)
_ Min-Zeit 07:38 23:58 - 20:43 - - 23:58 06:38 23:53
Minimum _ -5,2 C 95 % - 0,0 km/h (0 Bft) - - 9,0 C -5,6 C 0,0 km/h (0 Bft)
_ Max-Zeit 14:43 23:58 11:58 16:18 - - 23:58 11:23 16:43
Maximum _ 4,9 C 95 % 0,7 l/m 3,1 km/h
N-NO (1 Bft)
- - 9,0 C 15,1 C 6,4 km/h
N-NO (2 Bft)
Durchschnitt _ -0,3 C 95 % #6,2 l/m 0,5 km/h (0 Bft) N - 9,0 C 1,1 C 0,8 km/h (0 Bft)